Location: Newark
(25.6108°S, 54.5803°W)
Time: 03:06:56
(UTC+00:00)

A-11 Canister half - Pass Details

Date: 02 November 2020
Orbit: 1516 x 1684 km, 47.2° (Epoch: 30 November)

Event Time Altitude Azimuth Distance (km) Brightness Sun altitude
Exits shadow 07:38:19 - 344° (NNW) 4,609 11.1 -15.6°
Reaches altitude 10° 07:41:31 10° 352° (N) 3,690 10.7 -15.0°
Maximum altitude 07:49:30 33° 53° (NE) 2,332 10.2 -13.3°
Drops below altitude 10° 07:57:27 10° 112° (ESE) 3,689 12.6 -11.7°
Sets 08:00:52 0° 121° (ESE) 4,684 13.6 -11.0°
